Torna al catalogo

FENGYUN 1C DEB

AttivoSSO
NORAD 38799·DEBRIS·🇨🇳 China

Lanciato May 10, 1999 da Taiyuan Satellite Launch Center

Loading…

Prossimi Passaggi (prossime 24 ore)

TLE

In scadenzaSource: Space-Track

Epoca: Sep 4, 2026, 12:00 UTC

1 38799U 99025EUP 26247.50051080  .00001542  00000-0  34353-3 0  9994
2 38799  98.3857 327.0904 0158192 258.2663 100.0746 14.50980737678903

Traccia FENGYUN 1C DEB in tempo reale con AllMySat

Download on the App Store